TimePDT,TemperatureF,Dew PointF,Humidity,Sea Level PressureIn,VisibilityMPH,Wind Direction,Wind SpeedMPH,Gust SpeedMPH,PrecipitationIn,Events,Conditions,WindDirDegrees,DateUTC
12:15 AM,24.8,17.6,74,30.12,10.0,West,6.9,-,N/A,,Unknown,280,2013-03-22 07:15:00
12:35 AM,24.8,17.6,74,30.11,10.0,West,10.4,-,N/A,,Unknown,270,2013-03-22 07:35:00
12:55 AM,24.8,17.6,74,30.10,10.0,West,8.1,-,N/A,,Unknown,270,2013-03-22 07:55:00
1:15 AM,23.0,17.6,80,30.10,10.0,West,5.8,-,N/A,,Unknown,270,2013-03-22 08:15:00
1:35 AM,21.2,17.6,86,30.11,10.0,West,6.9,-,N/A,,Unknown,270,2013-03-22 08:35:00
1:55 AM,21.2,17.6,86,30.10,10.0,West,10.4,-,N/A,,Unknown,270,2013-03-22 08:55:00
2:15 AM,21.2,17.6,86,30.11,10.0,Calm,Calm,-,N/A,,Unknown,0,2013-03-22 09:15:00
2:35 AM,21.2,15.8,80,30.12,10.0,Calm,Calm,-,N/A,,Unknown,0,2013-03-22 09:35:00
2:55 AM,19.4,15.8,86,30.11,10.0,Calm,Calm,-,N/A,,Unknown,0,2013-03-22 09:55:00
3:15 AM,17.6,14.0,86,30.10,10.0,NW,5.8,-,N/A,,Unknown,310,2013-03-22 10:15:00
3:35 AM,17.6,14.0,86,30.10,10.0,NE,5.8,-,N/A,,Unknown,50,2013-03-22 10:35:00
3:55 AM,19.4,15.8,86,30.10,10.0,Calm,Calm,-,N/A,,Unknown,0,2013-03-22 10:55:00
4:15 AM,19.4,17.6,93,30.10,10.0,Calm,Calm,-,N/A,,Unknown,0,2013-03-22 11:15:00
4:35 AM,21.2,17.6,86,30.10,10.0,WNW,3.5,-,N/A,,Unknown,290,2013-03-22 11:35:00
4:55 AM,21.2,15.8,80,30.10,10.0,WNW,4.6,-,N/A,,Unknown,290,2013-03-22 11:55:00
5:15 AM,19.4,15.8,86,30.11,10.0,NNW,5.8,-,N/A,,Unknown,340,2013-03-22 12:15:00
5:35 AM,17.6,12.2,79,30.10,10.0,NW,5.8,-,N/A,,Unknown,310,2013-03-22 12:35:00
5:55 AM,17.6,12.2,79,30.10,10.0,NNW,3.5,-,N/A,,Unknown,330,2013-03-22 12:55:00
6:15 AM,19.4,12.2,74,30.11,10.0,NW,4.6,-,N/A,,Unknown,310,2013-03-22 13:15:00
6:35 AM,17.6,14.0,86,30.11,10.0,West,5.8,-,N/A,,Unknown,280,2013-03-22 13:35:00
6:55 AM,19.4,15.8,86,30.11,10.0,WNW,5.8,-,N/A,,Unknown,290,2013-03-22 13:55:00
7:15 AM,17.6,15.8,93,30.12,10.0,WNW,4.6,-,N/A,,Unknown,300,2013-03-22 14:15:00
7:35 AM,21.2,15.8,80,30.12,10.0,West,6.9,-,N/A,,Unknown,280,2013-03-22 14:35:00
7:55 AM,21.2,17.6,86,30.12,10.0,NW,5.8,-,N/A,,Unknown,320,2013-03-22 14:55:00
8:15 AM,24.8,15.8,69,30.13,10.0,West,4.6,-,N/A,,Unknown,280,2013-03-22 15:15:00
8:35 AM,26.6,17.6,69,30.13,10.0,West,6.9,-,N/A,,Unknown,280,2013-03-22 15:35:00
8:55 AM,28.4,15.8,59,30.13,10.0,West,8.1,-,N/A,,Unknown,280,2013-03-22 15:55:00
9:15 AM,30.2,15.8,55,30.13,10.0,West,6.9,-,N/A,,Unknown,260,2013-03-22 16:15:00
9:35 AM,30.2,15.8,55,30.12,10.0,West,4.6,-,N/A,,Unknown,270,2013-03-22 16:35:00
9:55 AM,30.2,17.6,60,30.12,10.0,WSW,6.9,-,N/A,,Unknown,250,2013-03-22 16:55:00
10:15 AM,30.2,15.8,55,30.13,10.0,West,5.8,-,N/A,,Unknown,280,2013-03-22 17:15:00
10:35 AM,33.8,12.2,41,30.13,10.0,NNE,4.6,-,N/A,,Unknown,30,2013-03-22 17:35:00
10:55 AM,30.2,12.2,47,30.13,10.0,North,6.9,-,N/A,,Unknown,360,2013-03-22 17:55:00
11:15 AM,32.0,12.2,44,30.13,10.0,NE,4.6,-,N/A,,Unknown,40,2013-03-22 18:15:00
11:35 AM,30.2,10.4,44,30.14,10.0,NNW,6.9,-,N/A,,Unknown,330,2013-03-22 18:35:00
11:55 AM,30.2,14.0,51,30.13,10.0,East,3.5,-,N/A,,Unknown,90,2013-03-22 18:55:00
12:15 PM,33.8,12.2,41,30.13,10.0,NW,4.6,-,N/A,,Unknown,320,2013-03-22 19:15:00
12:35 PM,33.8,12.2,41,30.13,10.0,WNW,9.2,-,N/A,,Unknown,290,2013-03-22 19:35:00
12:55 PM,33.8,15.8,48,30.12,10.0,WSW,5.8,-,N/A,,Unknown,240,2013-03-22 19:55:00
1:15 PM,37.4,15.8,41,30.12,10.0,West,9.2,-,N/A,,Unknown,280,2013-03-22 20:15:00
1:35 PM,33.8,10.4,38,30.11,10.0,Calm,Calm,-,N/A,,Unknown,0,2013-03-22 20:35:00
1:55 PM,33.8,14.0,44,30.12,10.0,NNE,4.6,-,N/A,,Unknown,20,2013-03-22 20:55:00
2:15 PM,33.8,14.0,44,30.12,10.0,NNE,3.5,-,N/A,,Unknown,30,2013-03-22 21:15:00
2:35 PM,33.8,15.8,48,30.11,10.0,East,5.8,-,N/A,,Unknown,80,2013-03-22 21:35:00
2:55 PM,33.8,15.8,48,30.10,10.0,NNE,3.5,-,N/A,,Unknown,20,2013-03-22 21:55:00
3:15 PM,35.6,12.2,38,30.09,10.0,East,3.5,-,N/A,,Unknown,80,2013-03-22 22:15:00
3:35 PM,37.4,15.8,41,30.09,10.0,SSE,3.5,-,N/A,,Unknown,160,2013-03-22 22:35:00
3:55 PM,37.4,14.0,38,30.09,10.0,WSW,5.8,-,N/A,,Unknown,250,2013-03-22 22:55:00
4:15 PM,39.2,12.2,33,30.09,10.0,ENE,3.5,-,N/A,,Unknown,70,2013-03-22 23:15:00
4:35 PM,39.2,12.2,33,30.08,10.0,WSW,6.9,-,N/A,,Unknown,240,2013-03-22 23:35:00
4:55 PM,39.2,12.2,33,30.08,10.0,WNW,9.2,-,N/A,,Unknown,290,2013-03-22 23:55:00
5:15 PM,39.2,10.4,31,30.09,10.0,West,8.1,16.1,N/A,,Unknown,280,2013-03-23 00:15:00
5:35 PM,37.4,12.2,36,30.09,10.0,North,10.4,-,N/A,,Unknown,360,2013-03-23 00:35:00
5:55 PM,37.4,10.4,33,30.09,10.0,North,8.1,-,N/A,,Unknown,10,2013-03-23 00:55:00
6:15 PM,35.6,10.4,35,30.09,10.0,NNE,9.2,-,N/A,,Unknown,20,2013-03-23 01:15:00
6:35 PM,35.6,10.4,35,30.09,10.0,North,11.5,-,N/A,,Unknown,10,2013-03-23 01:35:00
6:55 PM,33.8,12.2,41,30.10,10.0,North,13.8,17.3,N/A,,Unknown,10,2013-03-23 01:55:00
7:15 PM,30.2,10.4,44,30.11,10.0,North,15.0,-,N/A,,Unknown,360,2013-03-23 02:15:00
7:35 PM,30.2,10.4,44,30.12,10.0,North,15.0,-,N/A,,Unknown,360,2013-03-23 02:35:00
7:55 PM,28.4,12.2,51,30.13,10.0,North,11.5,-,N/A,,Unknown,350,2013-03-23 02:55:00
8:15 PM,28.4,12.2,51,30.13,10.0,North,12.7,-,N/A,,Unknown,350,2013-03-23 03:15:00
8:35 PM,28.4,10.4,47,30.14,10.0,North,12.7,-,N/A,,Unknown,350,2013-03-23 03:35:00
8:55 PM,28.4,10.4,47,30.15,10.0,North,13.8,19.6,N/A,,Unknown,350,2013-03-23 03:55:00
9:15 PM,26.6,10.4,51,30.16,10.0,North,11.5,-,N/A,,Unknown,350,2013-03-23 04:15:00
9:35 PM,26.6,12.2,55,30.16,10.0,North,15.0,19.6,N/A,,Unknown,360,2013-03-23 04:35:00
9:55 PM,26.6,12.2,55,30.17,10.0,North,11.5,-,N/A,,Unknown,360,2013-03-23 04:55:00
10:15 PM,24.8,14.0,64,30.17,10.0,North,11.5,-,N/A,,Unknown,360,2013-03-23 05:15:00
10:35 PM,24.8,14.0,64,30.18,10.0,North,9.2,-,N/A,,Unknown,350,2013-03-23 05:35:00
10:55 PM,24.8,15.8,69,30.18,10.0,North,8.1,-,N/A,,Unknown,360,2013-03-23 05:55:00
11:15 PM,24.8,15.8,69,30.19,10.0,North,4.6,-,N/A,,Unknown,10,2013-03-23 06:15:00
11:35 PM,21.2,15.8,80,30.20,10.0,North,5.8,-,N/A,,Unknown,10,2013-03-23 06:35:00
11:55 PM,21.2,15.8,80,30.20,10.0,North,5.8,-,N/A,,Unknown,350,2013-03-23 06:55:00